[[{"header":{"parameterUnit":"m.s-1","parameterCategory":1,"la1":30.2991,"la2":30.254,"lo1":-89.0895,"lo2":-89.0444,"dy":0.0017,"dx":0.0017,"nx":28,"ny":28,"refTime":"2024-02-24T03:00:00:Z","depth":0,"parameterNumber":2,"parameterNumberName":"U-component_of_WINDS"},"data":[0,0,0,0,0,0,0,0,0,0,0,0,0,0,0,0,0,0,0,0,0,0,0,0,0,0,0,0,0,0,0,0,0,0,0,0,0,0,0,0,0,0,0,0,0,0,0,0,0,0,0,0,0,0,0,0,0,0,3.1793,3.1793,0,3.1821,3.1821,3.1822,3.1811,3.181,3.181,3.1809,3.1839,3.184,3.1841,0,0,0,0,0,0,0,0,0,0,0,0,0,3.1734,3.1735,3.1793,3.1793,3.1794,3.1821,3.1821,3.1822,3.1811,3.181,3.1809,3.1809,3.1838,3.184,3.1842,0,0,0,0,0,0,0,0,0,0,0,0,0,3.176,3.1735,3.1793,3.1792,3.1792,3.1821,3.1821,3.1822,3.1811,3.181,3.1809,3.1808,3.1838,3.184,3.1842,3.1874,0,0,3.1848,3.1849,0,0,0,0,0,0,0,0,3.1759,3.1762,3.1791,3.1792,3.1792,3.1811,3.1811,3.1839,3.1811,3.1804,3.1809,3.1808,3.183,3.1833,3.1841,3.1876,3.1877,3.1848,3.185,3.1851,3.1851,0,0,0,0,0,0,0,3.1757,3.1761,3.1804,3.1792,3.1792,3.1791,3.1793,3.1817,3.1822,3.1804,3.1804,3.1807,3.183,3.1839,3.1841,3.1877,3.1848,3.185,3.1851,3.1852,3.1944,3.1946,0,0,0,0,0,0,3.1755,3.176,3.1803,3.1805,3.1773,3.1793,3.1796,3.1806,3.1822,3.1823,3.1808,3.1807,3.1835,3.1839,3.1842,3.1884,3.1851,3.1852,3.1854,3.1943,3.1945,3.1946,0,0,0,0,0,0,3.1753,3.1759,3.1802,3.1782,3.1788,3.1795,3.1807,3.1807,3.1815,3.1825,3.1826,3.1815,3.1835,3.1839,3.1867,3.1884,3.1853,3.1855,3.1942,3.1944,3.1945,3.1965,0,0,0,0,0,0,3.1752,3.1758,3.1769,3.1783,3.1789,3.1825,3.1808,3.1809,3.1819,3.1817,3.1832,3.1833,3.1834,3.1864,3.1869,3.1887,3.1857,3.194,3.1943,3.1945,3.1963,3.1967,3.1971,0,0,0,0,0,3.175,3.1773,3.177,3.1775,3.1803,3.1826,3.183,3.1831,3.182,3.1833,3.1839,3.1833,3.1882,3.1867,3.1873,3.1891,3.1939,3.1942,3.1945,3.1961,3.1966,3.1971,0,0,0,0,0,0,3.1762,3.1775,3.1771,3.18,3.1812,3.1824,3.184,3.1836,3.1852,3.185,3.185,3.1854,3.1883,3.189,3.1873,3.1925,3.1909,3.1913,3.192,3.1925,3.1929,3.1927,3.1859,0,0,0,0,0,3.1768,3.1785,3.1796,3.182,3.1826,3.1832,3.1842,3.1842,3.1855,3.186,3.1869,3.1882,3.1901,3.1913,3.1931,3.1964,3.1969,3.198,3.1984,3.1987,3.1991,3.2012,3.2018,3.1955,3.1955,3.1955,0,0,3.178,3.1789,3.18,3.1823,3.1832,3.1852,3.1836,3.1857,3.1872,3.1863,3.1891,3.1898,3.1913,3.1945,3.1959,3.1951,3.2009,3.1991,3.1993,3.1995,3.2015,3.2021,3.2027,3.1957,3.1956,3.1956,0,0,3.1813,3.1821,3.1843,3.1854,3.1869,3.1873,3.1878,3.1892,3.1897,3.1924,3.192,3.1938,3.1969,3.1982,3.1992,3.2033,3.2029,3.2039,3.206,3.2081,3.2086,3.2091,3.2108,3.2113,3.2042,3.2043,3.2043,0,3.1826,3.1854,3.1855,3.1877,3.1888,3.1882,3.1906,3.1917,3.1937,3.1945,3.1936,3.1978,3.1988,3.2024,3.2034,3.2042,3.205,3.2037,3.2085,3.209,3.2094,3.211,3.2116,3.2044,3.2044,3.2043,3.2043,0,3.1871,3.1891,3.1908,3.1928,3.1941,3.1964,3.197,3.1983,3.1983,3.1989,3.2019,3.2031,3.2052,3.2061,3.206,3.2098,3.2093,3.2085,3.2068,3.2101,3.2117,3.2123,3.2046,3.2045,3.2045,3.2044,0,0,3.191,3.1933,3.1939,3.195,3.1968,3.1984,3.2008,3.2029,3.2042,3.2057,3.2078,3.2107,3.21,3.2112,3.2113,3.2131,3.2167,3.2121,3.2122,3.2131,3.2212,3.2219,3.2226,3.2164,3.2165,3.2166,3.2211,0,3.1946,3.1987,3.199,3.2028,3.2048,3.2044,3.2066,3.208,3.2087,3.2106,3.2114,3.2135,3.2124,3.2131,3.2149,3.2158,3.2183,3.2155,3.2185,3.2187,3.2182,3.2233,3.224,3.2282,3.2217,3.2218,3.2219,0,3.1992,3.201,3.2049,3.2067,3.2076,3.2095,3.2116,3.2134,3.2151,3.2155,3.217,3.217,3.2197,3.218,3.2218,3.2199,3.2212,3.2219,3.2221,3.2224,3.2205,3.224,3.2295,3.2302,3.2228,3.2227,3.2226,0,3.2019,3.2052,3.2081,3.209,3.2111,3.2125,3.2135,3.2151,3.2165,3.2184,3.2194,3.2216,3.2228,3.2246,3.2253,3.224,3.2292,3.2275,3.2298,3.2298,3.2309,3.2308,3.2369,3.2316,3.2315,3.2315,3.2315,0,3.2059,3.2084,3.2094,3.2112,3.2141,3.2145,3.2174,3.2184,3.2199,3.222,3.2219,3.2239,3.2246,3.2268,3.2273,3.2306,3.2311,3.2316,3.2317,3.2317,3.2316,3.2326,3.2323,3.2317,3.2317,3.2316,3.2316,0,3.2093,3.2101,3.2133,3.2151,3.2157,3.2178,3.2194,3.2212,3.222,3.2247,3.2254,3.2266,3.2292,3.2301,3.2332,3.2336,3.2375,3.2373,3.2369,3.2369,3.2392,3.2391,3.2462,3.2472,3.2411,3.2411,3.2412,0,3.2119,3.2138,3.2159,3.2173,3.2184,3.2206,3.2221,3.2227,3.2242,3.2266,3.2282,3.2308,3.2329,3.2371,3.2384,3.2409,3.2409,3.2432,3.2412,3.2412,3.2411,3.2411,3.2414,3.2436,3.2436,3.2437,3.2437,0,3.2163,3.2167,3.2188,3.2211,3.2228,3.2247,3.2265,3.2277,3.2286,3.2304,3.2331,3.2347,3.2381,3.2407,3.2433,3.2445,3.2444,3.2443,3.245,3.245,3.2448,3.2452,3.238,3.2442,3.2441,3.2441,3.2441,3.244,3.2195,3.2214,3.2232,3.2256,3.2271,3.2288,3.2307,3.2318,3.2341,3.2368,3.2371,3.2401,3.2421,3.2456,3.2469,3.2494,3.2488,3.2497,3.25,3.2502,3.2505,3.2444,3.2499,3.2498,3.2498,3.2498,3.2498,0,3.2242,3.2254,3.2276,3.2302,3.2322,3.2319,3.2339,3.2357,3.2383,3.2401,3.2423,3.2456,3.2483,3.2499,3.2526,3.2543,3.2544,3.255,3.255,3.2553,3.2508,3.25,3.255,3.255,3.255,3.255,3.255,3.255,3.2268,3.23,3.2306,3.2346,3.2359,3.2388,3.2401,3.2418,3.2433,3.247,3.2492,3.2502,3.2521,3.2551,3.2576,3.258,3.2591,3.2599,3.2603,3.2561,3.2556,3.2551,3.2543,3.2601,3.2601,3.2646,3.2646,3.2647]},{"header":{"parameterUnit":"m.s-1","parameterCategory":1,"la1":30.2991,"la2":30.254,"lo1":-89.0895,"lo2":-89.0444,"dy":0.0017,"dx":0.0017,"nx":28,"ny":28,"refTime":"2024-02-24T03:00:00:Z","depth":0,"parameterNumber":3,"parameterNumberName":"V-component_of_WINDS"},"data":[0,0,0,0,0,0,0,0,0,0,0,0,0,0,0,0,0,0,0,0,0,0,0,0,0,0,0,0,0,0,0,0,0,0,0,0,0,0,0,0,0,0,0,0,0,0,0,0,0,0,0,0,0,0,0,0,0,0,-4.9282,-4.9281,0,-4.917,-4.9169,-4.9168,-4.9168,-4.917,-4.9171,-4.9173,-4.9048,-4.9044,-4.9039,0,0,0,0,0,0,0,0,0,0,0,0,0,-4.9486,-4.9482,-4.9282,-4.9281,-4.9279,-4.9171,-4.9169,-4.9168,-4.9168,-4.917,-4.9172,-4.9173,-4.905,-4.9044,-4.9039,0,0,0,0,0,0,0,0,0,0,0,0,0,-4.9388,-4.9481,-4.9282,-4.9267,-4.9264,-4.9171,-4.9169,-4.9167,-4.9168,-4.917,-4.9172,-4.9174,-4.9052,-4.9045,-4.9038,-4.8949,0,0,-4.9016,-4.9013,0,0,0,0,0,0,0,0,-4.9393,-4.938,-4.9271,-4.9268,-4.9265,-4.9186,-4.9195,-4.9094,-4.9167,-4.9204,-4.9173,-4.9175,-4.9092,-4.9081,-4.9055,-4.8944,-4.8938,-4.9016,-4.9011,-4.9008,-4.9006,0,0,0,0,0,0,0,-4.94,-4.9385,-4.9238,-4.9269,-4.9265,-4.9262,-4.9251,-4.9176,-4.9136,-4.9201,-4.9201,-4.9188,-4.909,-4.9062,-4.9052,-4.8936,-4.9016,-4.901,-4.9005,-4.9002,-4.8744,-4.8742,0,0,0,0,0,0,-4.9412,-4.9391,-4.9241,-4.9234,-4.9336,-4.9257,-4.9244,-4.9209,-4.9137,-4.9129,-4.9186,-4.9189,-4.9073,-4.906,-4.9048,-4.8938,-4.9008,-4.9002,-4.8998,-4.8747,-4.8743,-4.8741,0,0,0,0,0,0,-4.9416,-4.9398,-4.9246,-4.9313,-4.9293,-4.9251,-4.9211,-4.9205,-4.9177,-4.9126,-4.9118,-4.9165,-4.9074,-4.9058,-4.8974,-4.8933,-4.8999,-4.8992,-4.875,-4.8746,-4.8742,-4.8718,0,0,0,0,0,0,-4.9422,-4.94,-4.9368,-4.9312,-4.9289,-4.9177,-4.9209,-4.9202,-4.9166,-4.9168,-4.9104,-4.9096,-4.9075,-4.8985,-4.8967,-4.8925,-4.8987,-4.8753,-4.8748,-4.8743,-4.8722,-4.8714,-4.8706,0,0,0,0,0,-4.9429,-4.9364,-4.9367,-4.9349,-4.925,-4.9175,-4.9161,-4.9141,-4.9163,-4.9129,-4.9096,-4.9098,-4.8942,-4.8976,-4.8956,-4.8911,-4.8756,-4.8749,-4.8744,-4.8726,-4.8715,-4.8707,0,0,0,0,0,0,-4.9413,-4.9356,-4.9359,-4.9274,-4.923,-4.9175,-4.9131,-4.9131,-4.9077,-4.908,-4.9055,-4.904,-4.8956,-4.8926,-4.8965,-4.8821,-4.8851,-4.884,-4.8844,-4.8833,-4.8826,-4.8833,-4.8981,0,0,0,0,0,-4.9401,-4.9348,-4.93,-4.923,-4.9208,-4.9173,-4.914,-4.9129,-4.908,-4.906,-4.9021,-4.8971,-4.891,-4.8871,-4.8812,-4.8719,-4.8703,-4.8678,-4.867,-4.8664,-4.8654,-4.86,-4.8587,-4.8721,-4.8721,-4.8721,0,0,-4.9372,-4.9335,-4.9302,-4.9225,-4.919,-4.9132,-4.9157,-4.9095,-4.9051,-4.9049,-4.8968,-4.8938,-4.888,-4.8791,-4.8749,-4.8763,-4.8614,-4.8656,-4.8652,-4.8645,-4.8592,-4.858,-4.8568,-4.8717,-4.8718,-4.8719,0,0,-4.9291,-4.9259,-4.9196,-4.916,-4.9107,-4.9085,-4.907,-4.9015,-4.8996,-4.8915,-4.8912,-4.8858,-4.8755,-4.8713,-4.8678,-4.8582,-4.858,-4.8563,-4.8521,-4.8468,-4.8458,-4.8448,-4.841,-4.8398,-4.8555,-4.8555,-4.8554,0,-4.9261,-4.9178,-4.9163,-4.9101,-4.9066,-4.9066,-4.9,-4.8965,-4.8893,-4.8867,-4.8885,-4.8755,-4.8716,-4.8615,-4.8592,-4.8565,-4.8544,-4.8569,-4.8461,-4.8451,-4.8442,-4.8406,-4.8392,-4.8553,-4.8553,-4.8553,-4.8553,0,-4.9143,-4.9085,-4.904,-4.8975,-4.8935,-4.8871,-4.8843,-4.8804,-4.8796,-4.8771,-4.8687,-4.8641,-4.8572,-4.8548,-4.8539,-4.8446,-4.8455,-4.8467,-4.8496,-4.8428,-4.8393,-4.8379,-4.855,-4.8551,-4.8551,-4.8552,0,0,-4.9046,-4.8975,-4.8958,-4.8928,-4.8869,-4.8822,-4.8757,-4.8694,-4.8659,-4.861,-4.8552,-4.8466,-4.8476,-4.8437,-4.8423,-4.8377,-4.83,-4.8394,-4.8392,-4.8375,-4.8191,-4.818,-4.8165,-4.83,-4.8297,-4.8295,-4.8194,0,-4.8956,-4.8845,-4.883,-4.8729,-4.8674,-4.8673,-4.8616,-4.8572,-4.8547,-4.8493,-4.8464,-4.8402,-4.8423,-4.8398,-4.8353,-4.8319,-4.8262,-4.8327,-4.8242,-4.8239,-4.8254,-4.8147,-4.8136,-4.8043,-4.8181,-4.8179,-4.8177,0,-4.8837,-4.8788,-4.8683,-4.8631,-4.8607,-4.8557,-4.8496,-4.8446,-4.8395,-4.838,-4.8337,-4.8328,-4.8257,-4.8292,-4.8192,-4.8236,-4.8201,-4.8179,-4.8174,-4.8163,-4.8202,-4.8129,-4.8013,-4.7998,-4.8156,-4.8158,-4.816,0,-4.8773,-4.8681,-4.8606,-4.858,-4.8519,-4.8483,-4.8454,-4.8406,-4.8368,-4.8315,-4.8289,-4.8227,-4.8192,-4.8142,-4.8116,-4.8144,-4.8016,-4.8049,-4.7998,-4.7998,-4.7968,-4.797,-4.7841,-4.7951,-4.7951,-4.7951,-4.7952,0,-4.8673,-4.8608,-4.8576,-4.853,-4.8456,-4.8438,-4.8364,-4.8337,-4.8294,-4.8239,-4.8234,-4.8182,-4.8152,-4.8095,-4.8074,-4.7992,-4.7977,-4.7959,-4.7954,-4.7958,-4.796,-4.7932,-4.7936,-4.7948,-4.7948,-4.7949,-4.795,0,-4.8588,-4.8565,-4.8483,-4.8432,-4.8418,-4.8365,-4.832,-4.8273,-4.8249,-4.818,-4.8162,-4.8123,-4.8055,-4.8026,-4.7941,-4.7927,-4.7832,-4.7833,-4.7851,-4.7848,-4.7797,-4.7801,-4.7643,-4.762,-4.7748,-4.7747,-4.7746,0,-4.8524,-4.8475,-4.842,-4.8384,-4.8356,-4.8299,-4.8262,-4.8241,-4.8201,-4.814,-4.8099,-4.8032,-4.7977,-4.7868,-4.7829,-4.7764,-4.7761,-4.771,-4.7751,-4.7756,-4.7756,-4.7758,-4.7752,-4.7702,-4.7701,-4.7699,-4.7699,0,-4.8412,-4.8403,-4.8351,-4.8294,-4.825,-4.8203,-4.8157,-4.8128,-4.81,-4.8055,-4.7987,-4.7945,-4.786,-4.7792,-4.7725,-4.7692,-4.7688,-4.7687,-4.7671,-4.7673,-4.7684,-4.7674,-4.7827,-4.769,-4.7691,-4.7691,-4.7692,-4.7692,-4.8333,-4.8289,-4.8243,-4.8184,-4.8149,-4.8106,-4.8059,-4.803,-4.7975,-4.7906,-4.7897,-4.7824,-4.7772,-4.7681,-4.7646,-4.7586,-4.7598,-4.7576,-4.7569,-4.7563,-4.7558,-4.7697,-4.7574,-4.7574,-4.7574,-4.7575,-4.7575,0,-4.8218,-4.819,-4.8136,-4.8074,-4.8027,-4.8033,-4.7982,-4.7941,-4.7878,-4.7832,-4.7779,-4.7699,-4.7634,-4.7591,-4.7524,-4.7483,-4.748,-4.7466,-4.7466,-4.7458,-4.7553,-4.7573,-4.7469,-4.7469,-4.7469,-4.747,-4.747,-4.747,-4.8153,-4.8077,-4.8063,-4.7968,-4.7938,-4.7869,-4.7839,-4.7799,-4.7762,-4.7675,-4.7621,-4.7595,-4.7549,-4.7478,-4.7417,-4.7406,-4.7379,-4.7364,-4.7352,-4.7441,-4.7452,-4.7462,-4.748,-4.7359,-4.7359,-4.7262,-4.7261,-4.726]}]]